This is the latest recevied weather packets stored in our database for station/object K1BWE-1. If no packets are shown the sender has not sent any weather packets the latest 10 day(s).
| Time | Temp. | Humidity | Pressure | Rain* | Wind** | Luminosity | Snow |
|---|---|---|---|---|---|---|---|
| 1777951088 | 13.89° C | 92% | 1014.8 hPa | 0 mm | - | 0 W/m² | - |
| 1777950784 | 13.89° C | 92% | 1014.8 hPa | 0 mm | - | 0 W/m² | - |
| 1777950482 | 13.89° C | 93% | 1015.3 hPa | 0 mm | - | 0 W/m² | - |
| 1777950178 | 13.33° C | 93% | 1015.3 hPa | 0 mm | - | 0 W/m² | - |
| 1777949873 | 13.33° C | 93% | 1015.3 hPa | 0 mm | - | 0 W/m² | - |
| 1777949571 | 12.78° C | 93% | 1015 hPa | 0 mm | - | 0 W/m² | - |
| 1777949269 | 12.78° C | 93% | 1014.9 hPa | 1.27 mm | - | 0 W/m² | - |
| 1777948967 | 12.22° C | 93% | 1015 hPa | 1.27 mm | - | 0 W/m² | - |
| 1777948664 | 12.22° C | 93% | 1015 hPa | 0 mm | - | 0 W/m² | - |
| 1777948361 | 12.22° C | 92% | 1015.2 hPa | 0 mm | - | 0 W/m² | - |
| 1777948058 | 12.22° C | 92% | 1015.3 hPa | 1.78 mm | - | 0 W/m² | - |
| 1777947755 | 12.78° C | 92% | 1015.8 hPa | 1.78 mm | - | 0 W/m² | - |
| 1777947452 | 12.78° C | 91% | 1015.8 hPa | 1.27 mm | - | 0 W/m² | - |
| 1777947149 | 12.78° C | 90% | 1016 hPa | 1.27 mm | - | 0 W/m² | - |
| 1777946844 | 12.78° C | 89% | 1016.2 hPa | 1.78 mm | - | 0 W/m² | - |
| 1777946540 | 12.78° C | 88% | 1016.1 hPa | 3.05 mm | - | 0 W/m² | - |
| 1777946238 | 12.78° C | 87% | 1016.4 hPa | 3.05 mm | - | 0 W/m² | - |
| 1777945934 | 13.33° C | 84% | 1016.1 hPa | 3.56 mm | - | 0 W/m² | - |
| 1777945631 | 13.33° C | 82% | 1016.2 hPa | 1.78 mm | - | 0 W/m² | - |
| 1777945329 | 13.89° C | 79% | 1016.1 hPa | 3.05 mm | - | 1 W/m² | - |
| 1777945025 | 14.44° C | 76% | 1016.2 hPa | 3.05 mm | - | 2 W/m² | - |
| 1777944722 | 15° C | 71% | 1016.1 hPa | 1.78 mm | - | 3 W/m² | - |
| 1777944421 | 16.11° C | 65% | 1016 hPa | 1.27 mm | - | 4 W/m² | - |
| 1777944118 | 16.67° C | 60% | 1015.8 hPa | 1.27 mm | - | 4 W/m² | - |
| 1777943813 | 17.78° C | 52% | 1015.4 hPa | 0 mm | - | 5 W/m² | - |
* Rain latest hour (hover to see other rain measurements)
** Current wind speed in m/s (hover to see current wind gust speed)